Probability
3 2 1 0 0 0 0 0 0 0 0 0 0 0 0 0 0 0 0 0 0 0 0 0 0 0 1 1 1 3 3 4 5 4 1 0 0 0 0 1 2 2 2 2 1 1 1 0 0
2 1 0 0 0 0 0 0 0 0 0 0 0 0 0 0 0 0 0 0 0 0 0 0 0 0 1 1 1 2 3 3 4 3 1 0 0 0 0 1 2 2 2 3 2 1 1 0 0
1 0 0 0 0 0 0 0 0 0 0 0 0 0 0 0 0 0 0 0 0 0 0 0 0 0 0 0 1 1 2 3 2 1 0 0 0 0 0 1 2 3 3 3 3 2 1 0 0
0 0 0 0 0 0 0 0 0 0 0 0 0 0 0 0 0 0 0 0 0 0 0 0 0 0 0 0 0 0 1 1 1 1 0 0 0 0 0 1 2 3 3 3 2 1 0 0 0
0 0 0 0 0 0 0 0 0 0 0 0 0 0 0 0 0 1 1 1 0 0 0 0 0 0 0 0 0 0 0 0 0 0 0 0 0 0 0 0 1 1 2 2 1 0 0 1 1
0 0 0 0 0 0 0 0 0 0 0 0 0 0 0 0 0 1 1 1 0 0 0 0 0 0 0 0 0 0 0 0 0 0 0 0 0 0 0 0 0 0 1 1 0 0 0 1 2
0 0 0 0 0 0 0 0 0 0 0 0 0 0 0 0 0 0 0 0 0 0 0 0 0 0 0 0 0 0 0 0 0 0 0 0 0 0 0 0 0 0 0 0 0 0 0 1 1
0 0 0 0 0 0 0 0 1 1 1 0 0 0 0 0 0 0 0 0 0 0 0 0 0 0 0 0 0 0 0 0 0 0 0 0 0 0 0 0 0 0 0 0 0 0 0 0 0
0 0 0 0 0 0 0 0 1 2 2 1 0 0 0 0 0 0 0 0 0 0 0 0 0 0 0 0 0 0 0 0 0 0 0 0 0 0 0 0 0 0 0 0 0 0 0 0 0
0 0 0 0 0 0 0 0 1 3 2 1 1 0 0 0 0 0 0 0 0 0 0 0 0 0 0 0 0 0 0 0 0 0 0 0 0 0 0 0 0 0 0 0 0 0 0 0 0
0 0 0 0 0 0 0 0 1 2 2 1 0 0 0 0 0 0 0 0 0 0 0 0 0 0 0 0 0 0 0 0 0 0 0 0 0 0 0 0 0 0 0 0 0 0 0 0 0
0 0 0 0 0 0 0 0 1 1 1 1 0 1 2 1 0 0 0 0 0 0 0 0 0 0 0 0 0 0 0 0 0 0 0 0 0 0 0 0 0 0 0 0 0 0 0 0 0
0 0 0 0 0 0 0 0 1 1 1 2 1 1 2 1 0 0 0 0 0 0 0 0 0 0 0 0 0 0 0 0 0 0 0 0 0 0 0 0 0 0 0 0 0 0 0 0 0
0 0 0 0 0 0 0 0 1 1 2 2 1 1 1 1 0 0 1 1 0 0 0 0 0 0 0 0 0 0 0 0 0 0 0 0 0 0 0 0 0 0 0 0 0 0 0 0 0
0 0 0 0 0 0 0 0 0 0 1 1 1 1 2 1 1 1 1 0 0 0 0 0 0 0 0 0 0 0 0 0 0 0 0 0 0 0 0 0 0 0 0 0 0 0 0 0 0
0 0 0 0 0 0 0 0 0 0 0 0 0 1 2 2 1 1 1 0 0 0 0 0 0 0 0 0 0 0 0 0 0 0 0 0 0 0 0 0 0 0 0 0 0 0 0 0 0
0 0 0 0 0 0 0 0 0 0 0 0 0 1 2 2 1 1 0 0 0 0 0 0 0 0 0 0 0 0 0 0 0 0 0 0 0 0 0 0 0 0 0 0 0 0 0 0 0
0 0 0 0 0 0 0 0 0 0 0 0 0 0 2 3 2 1 0 0 0 0 0 0 0 0 0 0 1 0 0 0 0 0 0 0 0 0 0 0 0 0 0 0 0 0 0 0 0
0 0 0 0 0 0 0 0 0 0 0 0 0 1 2 3 2 1 0 0 0 0 0 0 0 0 0 0 1 1 0 0 0 0 0 0 0 0 0 0 0 0 0 0 0 0 0 0 0
0 0 0 0 0 0 0 0 0 0 0 0 0 1 2 4 3 1 0 0 0 0 0 0 0 0 0 1 2 2 1 0 0 0 0 0 0 0 0 0 0 0 0 0 0 0 0 0 0
0 0 0 0 0 0 0 0 0 0 0 0 0 0 2 4 4 3 1 0 0 0 0 0 0 0 0 1 2 3 1 0 0 0 0 0 0 0 0 0 0 0 0 0 0 0 0 0 0
0 0 0 0 0 0 0 0 0 0 0 0 0 0 1 3 4 4 2 0 0 0 0 0 0 0 0 1 2 3 2 1 0 0 0 0 0 0 0 0 0 0 0 0 0 0 0 0 0
0 0 0 0 0 0 0 0 0 0 0 0 0 1 1 1 3 3 2 1 0 0 0 0 0 0 0 0 1 2 3 2 1 0 0 0 0 0 0 0 0 0 0 0 0 0 0 0 0
0 0 0 0 0 0 0 0 0 0 0 0 1 2 2 1 2 3 3 2 1 0 0 0 0 0 0 0 0 1 3 2 1 0 0 0 0 0 0 0 0 0 0 0 0 0 0 0 0
0 0 0 0 0 0 0 0 0 0 0 0 1 2 1 1 1 2 3 3 2 1 0 0 0 0 0 0 0 1 2 2 1 0 0 0 0 0 0 0 0 0 0 0 0 0 0 0 0
0 0 0 0 0 0 0 0 0 0 0 0 1 1 0 0 0 1 3 3 3 2 1 1 0 0 0 0 0 0 1 2 1 0 0 0 0 0 0 0 0 0 0 0 0 0 0 0 0
0 0 0 0 0 0 0 0 0 0 0 0 0 0 0 0 0 1 3 4 3 3 3 2 1 0 0 0 0 0 1 2 2 1 0 0 0 0 0 0 0 0 0 0 0 0 0 0 0
0 0 0 0 0 0 0 0 0 0 0 0 0 0 1 1 1 1 3 4 4 3 3 3 2 1 1 0 0 0 1 2 2 1 0 0 0 0 0 0 0 0 0 0 0 0 0 0 0
0 0 0 0 0 0 0 0 0 0 0 0 0 0 2 3 2 2 2 3 3 3 3 3 3 3 2 1 0 0 0 1 1 1 0 0 0 0 0 0 0 0 0 0 0 0 0 0 0
0 0 0 0 0 0 0 0 0 0 0 0 0 0 2 4 3 2 2 3 3 3 3 3 3 3 3 2 1 0 0 0 1 0 0 0 0 0 0 0 0 0 0 0 0 0 0 0 0
Wind_Speed
3 1 2 3 6 6 3 1 1 3 4 5 9 10 8 6 4 5 2 5 6 4 3 4 8 8 9 9 9 10 10 9 9 10 10 10 10 10 10 10 9 9 9 10 11 11 11 10 10
1 1 3 5 6 4 1 0 4 4 5 6 8 8 8 6 4 5 3 5 6 5 3 4 7 8 9 9 9 10 10 9 9 10 10 10 10 10 10 10 11 11 11 11 11 11 11 10 10
1 1 4 4 4 3 3 2 4 4 5 5 6 6 5 4 4 3 5 7 7 5 3 4 8 9 9 9 9 10 10 10 10 10 10 10 10 10 10 11 12 12 12 12 11 11 11 11 11
2 4 5 6 4 1 4 3 4 6 5 6 7 6 4 3 3 5 8 8 7 5 3 4 8 9 9 9 9 10 10 10 10 10 10 10 10 10 10 11 12 12 12 12 11 11 11 11 11
3 5 5 4 3 2 2 3 4 5 4 5 7 6 4 3 7 9 9 8 7 4 3 4 8 9 9 9 9 10 10 10 10 10 10 10 10 10 11 11 11 12 12 12 11 11 11 11 11
4 5 5 3 2 2 2 3 6 7 6 5 7 6 3 3 7 7 8 7 7 5 4 4 7 8 9 9 9 9 10 10 10 10 10 10 10 11 11 11 11 11 12 11 11 11 11 12 12
4 4 3 3 3 2 2 3 5 5 5 3 5 6 3 2 5 7 7 7 6 5 4 3 3 5 8 8 9 9 9 9 10 10 10 10 10 11 10 11 11 11 11 11 11 11 11 12 12
5 5 2 1 3 1 2 3 4 5 4 4 4 7 5 4 5 7 7 6 5 5 4 3 2 3 3 4 7 8 8 8 9 9 9 10 10 10 10 9 9 10 10 10 10 10 11 12 12
4 6 1 2 4 2 3 5 3 5 7 5 4 4 6 8 8 7 5 4 4 5 3 3 2 2 2 2 4 5 6 6 6 6 8 7 4 4 5 6 8 8 9 9 9 10 11 11 11
5 3 1 2 5 4 3 5 5 5 7 5 5 6 8 8 8 8 6 5 5 4 4 3 3 2 2 3 2 2 2 2 2 2 3 2 2 2 4 5 6 7 7 8 9 9 10 8 5
3 4 2 3 4 5 4 3 3 7 4 5 8 9 8 7 6 6 6 5 5 5 5 4 3 3 2 2 2 1 1 1 1 2 2 2 2 2 3 2 3 4 5 4 6 6 4 4 4
3 2 4 4 4 4 4 4 4 4 4 6 9 10 9 8 7 7 7 5 4 4 5 4 4 3 3 2 2 1 1 1 1 2 3 3 2 2 2 2 2 2 2 3 3 3 4 5 5
3 2 4 5 6 5 6 5 6 4 6 8 9 9 8 8 6 6 6 5 5 5 4 4 4 4 3 3 2 2 2 2 2 2 2 3 3 2 2 1 2 2 2 3 3 4 4 4 4
3 3 4 4 4 4 6 4 5 4 8 9 9 8 7 7 7 6 5 5 5 5 4 4 4 4 4 3 2 2 2 2 2 2 2 3 3 3 3 2 2 2 3 3 3 4 4 4 4
3 3 1 1 3 3 6 3 3 7 8 9 8 7 7 6 6 6 7 6 5 5 4 4 4 4 4 3 3 2 2 2 2 2 3 3 4 4 4 3 3 2 3 4 3 4 4 4 4
2 2 0 3 3 3 5 3 4 6 8 7 7 6 6 6 6 6 6 5 5 5 5 4 5 5 4 3 3 2 2 3 2 2 3 4 4 4 4 3 2 2 3 3 3 3 4 4 4
2 1 2 3 2 3 5 4 5 6 8 8 7 7 6 5 5 5 6 6 6 6 6 5 4 5 5 4 3 3 3 3 2 2 3 3 4 4 4 3 2 3 3 3 3 3 3 3 3
3 2 2 3 2 4 3 4 5 6 8 8 7 7 6 6 6 6 6 6 5 5 5 5 4 4 4 3 3 3 3 2 2 2 3 3 3 4 4 3 3 3 3 3 3 3 3 2 2
3 2 2 4 3 4 4 4 6 6 6 6 6 7 7 7 6 6 6 6 4 4 5 5 5 4 4 3 3 2 1 1 1 2 3 3 3 4 4 3 3 3 3 3 3 3 3 2 2
2 1 2 2 2 3 3 3 4 6 8 9 9 9 8 6 4 5 6 6 6 5 5 5 5 5 4 4 3 3 3 2 1 1 2 2 3 4 4 4 3 3 3 3 3 3 2 1 1
1 3 3 3 1 1 1 3 2 3 4 5 7 8 8 9 8 7 6 6 6 5 6 6 5 5 4 4 3 3 2 2 2 1 1 1 2 3 4 4 4 3 3 3 2 3 3 2 0
3 4 3 2 1 2 1 2 5 4 3 5 6 7 8 8 8 7 7 6 7 7 6 6 5 4 4 5 5 5 4 3 3 2 1 1 2 3 3 4 4 3 3 3 2 2 2 3 1
4 4 3 2 1 1 1 2 6 1 3 6 6 8 8 8 9 8 8 7 7 6 6 6 5 4 4 5 6 6 4 3 2 2 2 1 1 2 3 3 4 3 3 3 2 2 2 2 2
1 3 4 4 3 2 4 3 5 3 6 5 5 7 7 8 8 8 7 5 5 5 5 5 6 4 4 5 5 6 6 4 4 3 2 2 1 1 2 3 3 3 3 3 3 2 2 2 2
4 5 3 4 2 4 3 2 5 6 4 6 7 6 6 7 7 7 6 5 5 6 6 6 6 5 4 5 5 6 6 6 5 4 4 3 2 2 3 3 3 3 3 3 3 3 2 2 2
2 7 5 3 3 4 3 1 4 4 1 1 3 4 5 5 6 8 8 8 7 7 7 6 6 5 5 5 5 4 5 4 4 4 4 4 3 3 4 4 4 4 4 3 3 2 2 2 2
2 3 5 5 1 1 3 3 4 4 4 3 3 3 4 5 6 8 7 7 6 7 7 8 7 5 5 6 5 4 4 4 4 4 4 3 3 3 4 4 4 4 4 4 3 2 2 3 2
3 4 4 3 2 2 3 2 3 2 1 1 2 3 3 3 4 4 5 5 4 4 4 5 6 6 6 5 5 4 4 4 4 4 4 3 3 3 4 4 4 3 3 4 3 2 3 3 2
1 1 3 3 3 4 2 5 4 5 4 3 3 3 3 4 4 5 4 4 4 3 3 3 3 4 4 5 5 4 4 4 3 4 4 4 3 3 3 4 4 4 4 4 4 4 4 4 3
2 3 5 3 2 2 3 6 5 2 2 3 2 2 2 3 4 4 4 4 3 3 3 3 3 3 3 4 4 4 4 4 4 4 4 4 4 3 3 3 3 3 3 3 4 4 4 4 4
Wind_Direction
302 334 88 62 56 55 65 39 106 67 60 55 70 80 81 64 80 124 182 134 121 120 106 94 89 89 88 88 87 85 85 83 84 88 90 87 84 81 78 77 78 86 93 89 82 78 77 76 75
341 19 69 60 78 79 63 141 93 88 134 119 80 74 74 71 79 107 118 131 120 113 103 99 94 92 89 88 86 85 83 83 85 88 88 87 85 82 78 76 75 86 95 91 84 80 77 76 75
319 64 78 67 80 131 147 173 128 100 101 94 79 57 68 90 102 119 140 131 114 102 90 102 98 95 91 91 89 85 83 83 86 90 90 90 87 83 81 80 78 83 88 87 84 80 78 77 75
62 46 56 71 79 126 156 175 134 107 74 67 96 73 62 60 117 130 131 124 115 106 95 102 102 100 94 90 90 87 84 83 86 90 90 88 86 86 85 84 83 84 85 85 84 82 79 77 74
69 71 63 64 79 76 120 137 114 97 79 76 93 94 70 40 104 120 127 123 120 113 101 104 104 103 99 94 93 92 88 87 87 88 88 87 88 89 88 87 87 86 84 83 82 80 78 75 72
58 66 80 83 96 94 78 102 99 91 99 98 95 101 90 101 112 124 129 124 124 121 107 103 108 107 101 97 96 96 93 90 90 89 89 91 92 90 89 88 88 86 85 84 82 79 75 73 69
99 88 110 131 122 102 127 105 99 109 100 92 108 101 116 130 134 131 127 122 121 120 111 91 99 106 106 104 100 100 99 95 93 91 91 93 93 90 90 89 88 89 85 82 81 79 76 73 71
121 96 71 93 122 122 136 107 109 105 99 96 100 125 156 183 147 126 122 121 120 122 121 111 94 89 95 104 105 104 103 98 94 90 88 86 86 85 87 87 87 88 84 80 78 79 75 72 71
86 77 90 171 147 149 121 103 83 73 90 68 74 128 153 151 134 121 117 115 127 132 139 134 123 108 108 117 115 107 107 103 96 91 94 86 69 67 78 85 86 83 80 77 76 76 73 72 68
83 105 193 170 153 145 117 114 122 95 87 83 78 91 120 131 137 138 143 145 150 154 162 153 147 147 144 131 102 77 78 73 74 78 88 84 78 67 73 78 81 75 70 66 69 70 69 68 61
113 148 142 104 128 124 107 98 95 116 105 146 145 143 140 134 139 147 152 149 156 159 157 160 161 161 152 128 121 91 72 69 70 95 106 93 73 57 51 49 48 44 51 47 55 57 61 66 64
100 127 131 127 112 110 118 108 85 103 153 154 149 149 148 148 155 159 157 151 143 140 147 156 158 151 149 135 133 123 107 97 98 111 117 111 98 81 70 53 41 40 43 56 57 64 67 70 67
105 116 106 118 117 121 109 104 109 109 133 137 139 142 152 159 163 163 159 154 145 143 146 148 139 139 137 124 129 112 115 127 128 113 114 118 114 109 97 75 66 61 63 72 75 75 71 67 64
149 131 125 132 126 126 116 119 109 149 144 140 145 153 163 167 166 157 153 154 152 155 154 145 131 135 126 120 118 119 117 114 104 102 115 119 118 117 105 89 74 66 70 77 82 81 78 72 70
107 97 71 159 147 149 110 79 153 166 152 151 159 166 167 174 168 164 171 171 168 163 155 152 145 129 126 122 119 110 106 100 95 93 103 118 118 113 105 96 83 73 77 82 80 72 69 71 68
75 74 292 260 174 173 128 197 220 174 155 163 174 178 176 182 182 178 172 169 171 161 154 164 147 133 130 128 119 106 96 93 91 85 89 103 110 110 103 98 89 80 81 84 85 78 75 67 66
38 170 233 275 208 165 145 193 211 187 166 175 182 182 181 184 188 184 175 173 172 169 163 163 148 146 145 135 121 104 92 90 99 93 90 100 104 108 107 105 101 91 84 85 95 83 92 86 77
219 210 225 231 224 148 161 197 203 192 185 186 187 186 183 185 195 183 177 174 168 166 160 157 149 146 139 124 102 83 68 70 84 93 95 99 103 109 108 105 99 93 88 79 86 91 77 88 91
192 189 228 237 216 156 184 200 209 196 189 191 191 190 191 197 195 177 172 166 159 161 152 156 154 155 143 131 127 124 127 116 91 105 112 113 113 114 110 106 99 95 100 106 104 99 87 70 88
151 160 253 272 225 161 178 228 219 200 197 192 191 191 190 187 182 181 175 172 170 170 164 162 166 163 158 157 158 159 153 142 134 112 103 118 119 122 120 116 115 112 106 98 97 104 99 87 85
223 196 215 215 349 36 95 314 258 246 210 196 195 193 189 185 185 183 175 174 170 172 174 173 173 164 164 155 133 108 80 65 60 74 100 122 126 128 130 131 128 124 123 129 131 129 123 144 288
238 234 201 185 75 287 177 268 273 229 214 207 203 197 195 191 185 181 176 175 180 182 176 169 169 164 163 155 149 150 150 157 188 184 176 158 149 144 143 146 142 141 138 143 157 146 139 138 163
220 223 201 202 175 302 294 182 282 224 224 228 208 197 197 189 181 180 182 182 182 177 171 169 166 164 163 162 160 156 153 169 171 160 154 155 167 163 156 155 152 153 154 160 159 144 146 147 155
168 44 24 47 71 297 250 180 275 242 225 217 206 197 192 185 180 181 183 170 167 166 163 160 160 171 170 164 163 160 162 164 157 159 167 179 189 198 185 167 164 167 165 169 171 169 167 169 155
78 78 22 355 8 257 268 175 254 265 243 195 188 192 190 181 176 177 175 170 173 171 168 166 164 173 172 167 172 174 174 173 175 176 180 180 186 202 208 187 180 178 183 182 171 168 179 172 166
172 140 158 199 231 281 328 246 266 298 355 131 153 157 163 172 179 180 183 181 182 181 175 173 178 178 173 172 182 183 176 176 184 184 182 190 197 203 200 188 187 191 186 182 169 170 182 171 183
149 179 178 151 219 290 304 313 320 3 41 67 94 122 155 173 180 185 186 183 183 183 183 182 181 180 185 186 181 185 184 179 184 185 182 191 198 198 190 184 184 188 188 181 167 175 193 180 189
167 160 100 122 169 256 291 283 258 272 268 89 119 148 174 164 158 162 170 172 173 176 182 183 180 181 187 184 183 185 189 187 185 175 183 191 195 190 183 188 187 186 186 182 174 182 195 174 189
6 108 119 132 157 163 235 274 247 205 193 170 181 176 176 173 178 177 175 172 167 160 157 162 176 177 183 186 187 190 192 189 182 182 193 194 189 184 185 190 190 190 192 187 182 192 184 180 191
183 183 145 150 223 172 175 265 287 200 188 161 177 189 182 175 181 174 166 159 155 157 159 161 163 177 195 190 184 190 186 182 186 193 197 190 188 191 191 184 183 191 196 190 186 194 189 184 193